Showing default

QIANFAN-33, 61566

Orbit data source: Space-Track

QIANFAN-33, 61566 is a Chinese payload satellite in LEO that was launched on Tue, 15 Oct 2024 UTC via a CHANG ZHENG 6A launch vehicle from the Taiyaun Space Center, China (TSC). Payload-class satellites include a variety of spacecraft equipped with specific instruments for various scientific and technological missions. These include communications satellites like Starlink; space stations such as the ISS; scientific satellites like the Hubble; Earth observation satellites from companies like Planet Labs, Umbra, and HawkEye 360; GPS; miniature CubeSats for education and research; and military/defense satellites.

Loading next visibility...
Identifier
61566, 2024-185Q
Orbit
LEO
Country
Flag of CNCN / PRC
Related business
Manufacturer
GESIH/SECM
Mission
Partially operational Commercial Communications
Bus & Motor
QIANFAN, Unknown motor
Mass
267 kg wet, ~267 kg dry
Launch date (UTC)
2024-10-15 (2 years ago)
Launch vehicle
CHANG ZHENG 6A
Launch site
Taiyaun Space Center, China (TSC)
Object type
Payload
Rocket body
Debris
Shape & HBR
Box + 1 Pan, 5.0 m
Radar Cross Section
13.200 m², Large (>1 m²)

Expand to show TLE details & history
Last TLE update: 6 hours ago

TLE from 6 hours ago
0 QIANFAN-33
1 61566U 24185Q   26169.25702532  .00000329  00000-0  22777-3 0  9996
2 61566  88.9818  57.8991 0009561  95.7102 264.5166 13.96705958 95335
Epoch: 2026-06-18T06:10Z
TLE epoch observation values (Epoch: 2026-06-18T06:10:06.987Z)
Latitude
0.00003°
Longitude
58.86703°
Altitude
908.916 km
Speed
7.397 km/s
True Right ascension
03h 51m 35s
True Declination
0° 00' 00"
Sunlit
Object was in daylight at epoch
Visualization orbit readout
Latitude
Unknown
Longitude
Unknown
Altitude
Unknown
Speed
Unknown
Apparent Right ascension
Unknown
Apparent Declination
Unknown
Sunlit
N/A
Visualization observer readout
Local Sidereal Time
23:24:23
Azimuth
Unknown
Elevation
Unknown
Doppler factor
Unknown
Orbital elements
Apogee altitude
909.17 km
Perigee altitude
895.248 km
Semi-major axis
7,280.346 km
Eccentricity
0.00096
Inclination
88.9818°
RAAN
57.8991°
Arg. of periapsis
95.7102°
True anomaly
264.40755°
Mean anomaly
264.5166°
Eccentric anomaly
264.46208°
Mean motion
3.49394 °/min
Orbital period
103.04 mins
BSTAR
0.00022777
Loading maneuver chart data...
Computing Atmospheric mass density...
Loading historical data...
Loading historical data...
Loading historical data...
Loading historical data...
Loading historical data...
Loading historical data...
Loading historical data...

Documentation

Showing up to 5 results
|